Location: Newark
(48.5156°N, 1.8989°W)
Time: 22:26:18
(UTC+00:00)

Transit 4A - Pass Details

Date: 29 November 2019
Orbit: 870 x 975 km, 66.8° (Epoch: 13 December)

Event Time Altitude Azimuth Distance (km) Brightness Sun altitude
Rises 20:12:14 0° 220° (SW) 3,619 11.3 -38.3°
Reaches altitude 10° 20:14:49 10° 222° (SW) 2,664 10.5 -38.7°
Enters shadow 20:16:22 19° 225° (SW) 2,102 10.0 -39.0°
